Location: Deurze
(52.9838°N, 6.6090°E)
Time: 19:14:09
(UTC+00:00)

Cosmos 1943 Rocket - Pass Details

Date: 11 March 2026
Orbit: 809 x 844 km, 71.0° (Epoch: 20 April)

Event Time Altitude Azimuth Distance (km) Brightness Sun altitude
Rises 19:40:57 0° 248° (WSW) 3,345 6.0 -20.1°
Reaches altitude 10° 19:43:39 10° 259° (WSW) 2,422 5.4 -20.4°
Maximum altitude 19:48:30 30° 320° (NW) 1,445 4.0 -21.1°
Drops below altitude 10° 19:53:26 10° 21° (NNE) 2,453 4.6 -21.8°
Sets 19:56:12 0° 32° (NNE) 3,395 5.3 -22.2°
